N337B 7FL6-K9A0

Flight info

Callsign N337B
Flight time 2h 30m
Altitude 8500
Route SGJ DCT CRG DCT SSI DCT DBN DCT AHN
Aircraft C337/L-SFG/C

Departure

Time 2026-05-06 18:30
Airport Spruce Creek Airport (7FL6)

Arrival

Time 2026-05-06 21:00
Airport Lumpkin County Wimpys Airport (K9A0)
Time Latitude Longitude Altitude Speed Heading
2026-05-06 18:24 29.07973 -81.04582 28 ft 0 kts 236°
2026-05-06 18:26 29.07956 -81.04581 28 ft 6 kts 163°
2026-05-06 18:27 29.07910 -81.04567 29 ft 8 kts 181°
2026-05-06 18:27 29.07843 -81.04576 29 ft 12 kts 188°
2026-05-06 18:27 29.07803 -81.04640 28 ft 14 kts 286°
2026-05-06 18:27 29.07817 -81.04768 28 ft 18 kts 272°
2026-05-06 18:28 29.07821 -81.04868 27 ft 0 kts 265°
2026-05-06 18:28 29.07777 -81.04895 29 ft 14 kts 226°
2026-05-06 18:28 29.07721 -81.04992 30 ft 14 kts 255°
2026-05-06 18:28 29.07727 -81.05014 29 ft 0 kts 308°
2026-05-06 18:29 29.07772 -81.05020 29 ft 5 kts 51°
2026-05-06 18:29 29.07817 -81.04955 28 ft 38 kts 52°
2026-05-06 18:29 29.08102 -81.04549 78 ft 82 kts 60°
2026-05-06 18:29 29.08456 -81.04013 368 ft 90 kts 58°
2026-05-06 18:30 29.08683 -81.03384 695 ft 84 kts 109°
2026-05-06 18:30 29.08263 -81.02851 835 ft 101 kts 136°
2026-05-06 18:30 29.07585 -81.02771 1069 ft 111 kts 213°
2026-05-06 18:30 29.07101 -81.03537 1167 ft 128 kts 236°
2026-05-06 18:31 29.06601 -81.04489 1084 ft 149 kts 236°
2026-05-06 18:31 29.06055 -81.05546 1085 ft 158 kts 236°
2026-05-06 18:31 29.05480 -81.06628 1097 ft 165 kts 237°
2026-05-06 18:31 29.04867 -81.07764 1097 ft 169 kts 235°
2026-05-06 18:32 29.04556 -81.08996 1126 ft 165 kts 278°
2026-05-06 18:32 29.05192 -81.09991 1313 ft 156 kts 333°
2026-05-06 18:32 29.06211 -81.09968 1531 ft 145 kts 22°
2026-05-06 18:32 29.07135 -81.09625 1854 ft 133 kts 17°
2026-05-06 18:33 29.07955 -81.09262 2237 ft 121 kts 27°
2026-05-06 18:33 29.08675 -81.08863 2660 ft 110 kts 28°
2026-05-06 18:33 29.09375 -81.08476 2988 ft 115 kts 28°
2026-05-06 18:33 29.10093 -81.08067 3384 ft 115 kts 28°
2026-05-06 18:34 29.10796 -81.07665 3741 ft 115 kts 27°
2026-05-06 18:34 29.11501 -81.07243 4035 ft 114 kts 29°
2026-05-06 18:34 29.12207 -81.06829 4375 ft 114 kts 24°
2026-05-06 18:34 29.12962 -81.06562 4751 ft 113 kts 15°
2026-05-06 18:35 29.13722 -81.06336 5067 ft 113 kts
2026-05-06 18:35 29.14482 -81.06507 5329 ft 112 kts 348°
2026-05-06 18:35 29.15241 -81.06685 5644 ft 111 kts 345°
2026-05-06 18:35 29.15986 -81.06908 5938 ft 110 kts 340°
2026-05-06 18:36 29.16715 -81.07186 6246 ft 110 kts 342°
2026-05-06 18:36 29.17452 -81.07429 6542 ft 110 kts 343°
2026-05-06 18:36 29.18189 -81.07660 6823 ft 110 kts 343°
2026-05-06 18:36 29.18925 -81.07884 7108 ft 109 kts 344°
2026-05-06 18:37 29.19662 -81.08107 7390 ft 109 kts 344°
2026-05-06 18:37 29.20150 -81.08252 7565 ft 109 kts 344°
2026-05-06 18:37 29.21127 -81.08541 7931 ft 110 kts 345°
2026-05-06 18:37 29.21865 -81.08761 8190 ft 109 kts 344°
2026-05-06 18:38 29.22605 -81.08981 8426 ft 112 kts 344°
2026-05-06 18:38 29.23403 -81.09217 8513 ft 126 kts 345°
2026-05-06 18:38 29.24311 -81.09485 8518 ft 143 kts 345°
2026-05-06 18:38 29.25311 -81.09781 8515 ft 152 kts 345°
2026-05-06 18:39 29.26356 -81.10092 8512 ft 157 kts 345°
2026-05-06 18:39 29.27426 -81.10409 8513 ft 160 kts 344°
2026-05-06 18:39 29.28497 -81.10727 8510 ft 162 kts 345°
2026-05-06 18:40 29.30694 -81.11409 8509 ft 164 kts 340°
2026-05-06 18:40 29.31787 -81.11782 8507 ft 164 kts 344°
2026-05-06 18:40 29.32892 -81.12124 8510 ft 165 kts 343°
2026-05-06 18:40 29.33994 -81.12483 8508 ft 164 kts 343°
2026-05-06 18:41 29.35090 -81.12846 8506 ft 164 kts 343°
2026-05-06 18:41 29.36189 -81.13210 8507 ft 165 kts 342°
2026-05-06 18:41 29.37296 -81.13575 8510 ft 166 kts 343°
2026-05-06 18:41 29.38404 -81.13942 8510 ft 166 kts 342°
2026-05-06 18:42 29.39500 -81.14305 8506 ft 166 kts 342°
2026-05-06 18:42 29.40611 -81.14674 8508 ft 166 kts 342°
2026-05-06 18:42 29.41721 -81.15041 8510 ft 166 kts 342°
2026-05-06 18:42 29.42834 -81.15410 8508 ft 167 kts 342°
2026-05-06 18:43 29.43945 -81.15778 8506 ft 166 kts 342°
2026-05-06 18:43 29.45055 -81.16146 8509 ft 166 kts 342°
2026-05-06 18:43 29.46162 -81.16515 8509 ft 166 kts 342°
2026-05-06 18:43 29.47269 -81.16881 8506 ft 165 kts 342°
2026-05-06 18:44 29.48357 -81.17241 8505 ft 165 kts 342°
2026-05-06 18:44 29.49452 -81.17605 8501 ft 164 kts 342°
2026-05-06 18:44 29.50551 -81.17970 8507 ft 165 kts 342°
2026-05-06 18:44 29.51658 -81.18337 8509 ft 166 kts 342°
2026-05-06 18:45 29.52766 -81.18705 8508 ft 165 kts 342°
2026-05-06 18:45 29.53495 -81.18948 8504 ft 165 kts 342°
2026-05-06 18:45 29.54594 -81.19312 8508 ft 164 kts 342°
2026-05-06 18:45 29.55686 -81.19677 8507 ft 163 kts 342°
2026-05-06 18:46 29.57138 -81.20158 8504 ft 165 kts 341°
2026-05-06 18:46 29.58240 -81.20524 8506 ft 165 kts 342°
2026-05-06 18:46 29.59348 -81.20893 8509 ft 166 kts 342°
2026-05-06 18:46 29.60457 -81.21262 8507 ft 166 kts 341°
2026-05-06 18:47 29.61569 -81.21633 8507 ft 167 kts 342°
2026-05-06 18:47 29.62305 -81.21877 8510 ft 167 kts 342°
2026-05-06 18:47 29.63427 -81.22252 8486 ft 168 kts 341°
2026-05-06 18:47 29.64547 -81.22623 8508 ft 169 kts 341°
2026-05-06 18:48 29.66056 -81.23131 8495 ft 171 kts 341°
2026-05-06 18:48 29.66823 -81.23386 8505 ft 169 kts 342°
2026-05-06 18:48 29.67965 -81.23760 8503 ft 171 kts 341°
2026-05-06 18:48 29.69093 -81.24136 8506 ft 171 kts 341°
2026-05-06 18:49 29.70228 -81.24516 8502 ft 170 kts 341°
2026-05-06 18:49 29.71369 -81.24895 8501 ft 170 kts 341°
2026-05-06 18:49 29.72504 -81.25275 8500 ft 170 kts 341°
2026-05-06 18:49 29.73640 -81.25653 8499 ft 170 kts 341°
2026-05-06 18:50 29.74774 -81.26030 8500 ft 169 kts 341°
2026-05-06 18:50 29.75906 -81.26410 8508 ft 170 kts 340°
2026-05-06 18:50 29.77047 -81.26792 8495 ft 170 kts 341°
2026-05-06 18:50 29.78174 -81.27167 8500 ft 168 kts 341°
2026-05-06 18:51 29.79291 -81.27538 8494 ft 166 kts 341°
2026-05-06 18:51 29.80387 -81.27907 8501 ft 167 kts 341°
2026-05-06 18:51 29.81505 -81.28281 8496 ft 167 kts 341°
2026-05-06 18:51 29.82628 -81.28656 8504 ft 169 kts 341°
2026-05-06 18:52 29.83754 -81.29032 8497 ft 168 kts 341°
2026-05-06 18:52 29.84881 -81.29407 8507 ft 169 kts 341°
2026-05-06 18:52 29.86009 -81.29785 8510 ft 169 kts 341°
2026-05-06 18:52 29.87137 -81.30164 8499 ft 168 kts 341°
2026-05-06 18:53 29.88257 -81.30537 8502 ft 167 kts 340°
2026-05-06 18:53 29.89374 -81.30911 8495 ft 167 kts 341°
2026-05-06 18:53 29.90489 -81.31284 8498 ft 167 kts 341°
2026-05-06 18:53 29.91593 -81.31654 8496 ft 168 kts 340°
2026-05-06 18:54 29.92713 -81.32030 8495 ft 167 kts 341°
2026-05-06 18:54 29.93831 -81.32405 8496 ft 168 kts 340°
2026-05-06 18:54 29.94950 -81.32779 8494 ft 167 kts 341°
2026-05-06 18:54 29.96049 -81.33200 8494 ft 165 kts 334°
2026-05-06 18:55 29.97111 -81.33713 8498 ft 166 kts 335°
2026-05-06 18:55 29.98189 -81.34204 8498 ft 167 kts 335°
2026-05-06 18:55 29.99265 -81.34703 8501 ft 167 kts 334°
2026-05-06 18:55 30.00341 -81.35207 8504 ft 167 kts 334°
2026-05-06 18:56 30.01407 -81.35708 8500 ft 168 kts 335°
2026-05-06 18:56 30.02484 -81.36214 8502 ft 167 kts 334°
2026-05-06 18:56 30.03561 -81.36718 8500 ft 167 kts 335°
2026-05-06 18:56 30.04640 -81.37224 8511 ft 169 kts 334°
2026-05-06 18:57 30.05729 -81.37735 8499 ft 168 kts 334°
2026-05-06 18:57 30.06810 -81.38242 8498 ft 167 kts 335°
2026-05-06 18:57 30.07886 -81.38745 8495 ft 169 kts 335°
2026-05-06 18:57 30.08975 -81.39256 8492 ft 169 kts 334°
2026-05-06 18:58 30.10060 -81.39770 8495 ft 168 kts 334°
2026-05-06 18:58 30.11126 -81.40271 8491 ft 167 kts 335°
2026-05-06 18:58 30.12205 -81.40779 8500 ft 169 kts 334°
2026-05-06 18:58 30.13300 -81.41290 8498 ft 171 kts 335°
2026-05-06 18:59 30.14400 -81.41810 8493 ft 170 kts 334°
2026-05-06 18:59 30.15494 -81.42323 8481 ft 169 kts 334°
2026-05-06 18:59 30.16581 -81.42835 8481 ft 168 kts 334°
2026-05-06 18:59 30.17664 -81.43344 8479 ft 168 kts 334°
2026-05-06 19:00 30.18745 -81.43851 8474 ft 168 kts 334°
2026-05-06 19:00 30.19818 -81.44356 8476 ft 169 kts 334°
2026-05-06 19:00 30.20901 -81.44868 8473 ft 168 kts 334°
2026-05-06 19:00 30.21986 -81.45378 8464 ft 168 kts 334°
2026-05-06 19:01 30.23063 -81.45886 8466 ft 167 kts 334°
2026-05-06 19:01 30.24139 -81.46393 8465 ft 167 kts 334°
2026-05-06 19:01 30.25214 -81.46899 8466 ft 167 kts 334°
2026-05-06 19:01 30.26287 -81.47404 8471 ft 167 kts 334°
2026-05-06 19:02 30.27366 -81.47914 8467 ft 167 kts 334°
2026-05-06 19:02 30.28443 -81.48422 8470 ft 167 kts 334°
2026-05-06 19:02 30.29516 -81.48928 8473 ft 166 kts 334°
2026-05-06 19:02 30.30578 -81.49429 8475 ft 168 kts 334°
2026-05-06 19:03 30.31661 -81.49940 8475 ft 168 kts 334°
2026-05-06 19:03 30.32741 -81.50450 8476 ft 167 kts 334°
2026-05-06 19:03 30.33825 -81.50927 8470 ft 168 kts 342°
2026-05-06 19:03 30.35006 -81.50947 8470 ft 172 kts
2026-05-06 19:04 30.36202 -81.50797 8470 ft 173 kts
2026-05-06 19:04 30.37405 -81.50679 8467 ft 174 kts
2026-05-06 19:04 30.38606 -81.50571 8471 ft 173 kts
2026-05-06 19:04 30.39785 -81.50466 8475 ft 172 kts
2026-05-06 19:05 30.40990 -81.50359 8485 ft 175 kts
2026-05-06 19:05 30.42198 -81.50251 8485 ft 173 kts
2026-05-06 19:05 30.43398 -81.50143 8486 ft 173 kts
2026-05-06 19:05 30.44601 -81.50036 8484 ft 173 kts
2026-05-06 19:06 30.45807 -81.49928 8489 ft 174 kts
2026-05-06 19:06 30.47021 -81.49820 8492 ft 175 kts
2026-05-06 19:06 30.48238 -81.49711 8486 ft 175 kts
2026-05-06 19:06 30.49446 -81.49602 8483 ft 173 kts
2026-05-06 19:07 30.50648 -81.49495 8486 ft 173 kts
2026-05-06 19:07 30.51834 -81.49389 8485 ft 173 kts
2026-05-06 19:07 30.53041 -81.49282 8481 ft 175 kts
2026-05-06 19:07 30.54248 -81.49173 8486 ft 174 kts
2026-05-06 19:08 30.55452 -81.49064 8479 ft 173 kts
2026-05-06 19:08 30.56655 -81.48956 8479 ft 173 kts
2026-05-06 19:08 30.57857 -81.48849 8481 ft 174 kts
2026-05-06 19:08 30.59062 -81.48741 8480 ft 173 kts
2026-05-06 19:09 30.60264 -81.48632 8481 ft 173 kts
2026-05-06 19:09 30.61464 -81.48525 8479 ft 173 kts 360°
2026-05-06 19:09 30.62649 -81.48420 8486 ft 173 kts
2026-05-06 19:09 30.63857 -81.48309 8489 ft 175 kts
2026-05-06 19:10 30.65070 -81.48203 8491 ft 174 kts 359°
2026-05-06 19:10 30.66278 -81.48100 8501 ft 175 kts
2026-05-06 19:10 30.67493 -81.47984 8496 ft 175 kts 360°
2026-05-06 19:10 30.68703 -81.47874 8494 ft 174 kts 360°
2026-05-06 19:11 30.69912 -81.47766 8492 ft 174 kts 360°
2026-05-06 19:11 30.71120 -81.47658 8492 ft 174 kts 360°
2026-05-06 19:11 30.72325 -81.47549 8494 ft 174 kts
2026-05-06 19:11 30.73520 -81.47443 8493 ft 175 kts 360°
2026-05-06 19:12 30.74733 -81.47332 8498 ft 175 kts
2026-05-06 19:12 30.75955 -81.47221 8501 ft 177 kts
2026-05-06 19:12 30.77175 -81.47113 8497 ft 175 kts 360°
2026-05-06 19:12 30.78390 -81.47005 8495 ft 174 kts 360°
2026-05-06 19:13 30.79595 -81.46896 8492 ft 174 kts 360°
2026-05-06 19:13 30.80801 -81.46784 8490 ft 174 kts
2026-05-06 19:13 30.82010 -81.46678 8490 ft 175 kts 359°
2026-05-06 19:13 30.83203 -81.46572 8488 ft 174 kts 360°
2026-05-06 19:14 30.84410 -81.46462 8486 ft 174 kts 360°
2026-05-06 19:14 30.85618 -81.46353 8486 ft 174 kts 359°
2026-05-06 19:14 30.86827 -81.46244 8484 ft 174 kts 360°
2026-05-06 19:14 30.88035 -81.46135 8483 ft 174 kts 360°
2026-05-06 19:15 30.89244 -81.46026 8481 ft 175 kts 360°
2026-05-06 19:15 30.90466 -81.45916 8482 ft 177 kts 360°
2026-05-06 19:15 30.91695 -81.45804 8491 ft 179 kts 360°
2026-05-06 19:15 30.92935 -81.45692 8483 ft 178 kts 360°
2026-05-06 19:16 30.94162 -81.45581 8484 ft 177 kts 360°
2026-05-06 19:16 30.95368 -81.45472 8484 ft 176 kts 360°
2026-05-06 19:16 30.96583 -81.45362 8485 ft 175 kts 360°
2026-05-06 19:16 30.97796 -81.45252 8482 ft 175 kts 359°
2026-05-06 19:17 30.99004 -81.45144 8479 ft 174 kts 359°
2026-05-06 19:17 31.00211 -81.45035 8480 ft 174 kts 359°
2026-05-06 19:17 31.01415 -81.44925 8480 ft 174 kts 359°
2026-05-06 19:17 31.02623 -81.44816 8477 ft 174 kts 359°
2026-05-06 19:18 31.03825 -81.44707 8480 ft 174 kts 359°
2026-05-06 19:18 31.04998 -81.44725 8472 ft 167 kts 341°
2026-05-06 19:18 31.05975 -81.45371 8477 ft 160 kts 316°
2026-05-06 19:18 31.06842 -81.46193 8473 ft 161 kts 317°
2026-05-06 19:19 31.07734 -81.47000 8488 ft 164 kts 318°
2026-05-06 19:19 31.08651 -81.47818 8485 ft 168 kts 318°
2026-05-06 19:19 31.09582 -81.48662 8483 ft 170 kts 317°
2026-05-06 19:19 31.10513 -81.49495 8485 ft 167 kts 318°
2026-05-06 19:20 31.11438 -81.50317 8479 ft 166 kts 318°
2026-05-06 19:20 31.12338 -81.51125 8479 ft 165 kts 318°
2026-05-06 19:20 31.13245 -81.51940 8479 ft 164 kts 318°
2026-05-06 19:20 31.14147 -81.52751 8477 ft 164 kts 317°
2026-05-06 19:21 31.15049 -81.53562 8478 ft 164 kts 317°
2026-05-06 19:21 31.15951 -81.54371 8474 ft 163 kts 317°
2026-05-06 19:21 31.16855 -81.55185 8476 ft 164 kts 317°
2026-05-06 19:21 31.17761 -81.55999 8475 ft 164 kts 317°
2026-05-06 19:22 31.18665 -81.56811 8476 ft 164 kts 317°
2026-05-06 19:22 31.19570 -81.57624 8478 ft 164 kts 317°
2026-05-06 19:22 31.20463 -81.58427 8478 ft 164 kts 317°
2026-05-06 19:22 31.21367 -81.59241 8477 ft 164 kts 317°
2026-05-06 19:23 31.22266 -81.60050 8478 ft 164 kts 317°
2026-05-06 19:23 31.23169 -81.60862 8477 ft 164 kts 317°
2026-05-06 19:23 31.24071 -81.61675 8480 ft 164 kts 317°
2026-05-06 19:23 31.24977 -81.62491 8479 ft 164 kts 317°
2026-05-06 19:24 31.25882 -81.63307 8491 ft 166 kts 317°
2026-05-06 19:24 31.26816 -81.64148 8478 ft 170 kts 317°
2026-05-06 19:24 31.27731 -81.64971 8481 ft 167 kts 317°
2026-05-06 19:24 31.28650 -81.65799 8484 ft 166 kts 317°
2026-05-06 19:25 31.29564 -81.66623 8480 ft 165 kts 317°
2026-05-06 19:25 31.30474 -81.67444 8477 ft 165 kts 317°
2026-05-06 19:25 31.31385 -81.68266 8475 ft 165 kts 317°
2026-05-06 19:25 31.32293 -81.69085 8475 ft 165 kts 317°
2026-05-06 19:26 31.33198 -81.69902 8475 ft 164 kts 316°
2026-05-06 19:26 31.34102 -81.70718 8476 ft 164 kts 316°
2026-05-06 19:26 31.35005 -81.71535 8474 ft 165 kts 317°
2026-05-06 19:26 31.35913 -81.72356 8490 ft 165 kts 315°
2026-05-06 19:27 31.36816 -81.73175 8472 ft 167 kts 317°
2026-05-06 19:27 31.37737 -81.74001 8476 ft 168 kts 317°
2026-05-06 19:27 31.38658 -81.74832 8473 ft 166 kts 317°
2026-05-06 19:27 31.39569 -81.75656 8471 ft 165 kts 317°
2026-05-06 19:28 31.40475 -81.76476 8471 ft 164 kts 317°
2026-05-06 19:28 31.41378 -81.77293 8471 ft 164 kts 316°
2026-05-06 19:28 31.42281 -81.78111 8475 ft 164 kts 316°
2026-05-06 19:28 31.43184 -81.78928 8471 ft 164 kts 316°
2026-05-06 19:29 31.44071 -81.79731 8469 ft 163 kts 316°
2026-05-06 19:29 31.44972 -81.80547 8471 ft 163 kts 316°
2026-05-06 19:29 31.45870 -81.81360 8476 ft 163 kts 316°
2026-05-06 19:29 31.46777 -81.82184 8486 ft 167 kts 316°
2026-05-06 19:30 31.47697 -81.83016 8480 ft 166 kts 316°
2026-05-06 19:30 31.48609 -81.83841 8478 ft 165 kts 316°
2026-05-06 19:30 31.49514 -81.84662 8482 ft 165 kts 316°
2026-05-06 19:30 31.50424 -81.85489 8482 ft 166 kts 316°
2026-05-06 19:31 31.51332 -81.86312 8484 ft 165 kts 316°
2026-05-06 19:31 31.52237 -81.87134 8492 ft 168 kts 316°
2026-05-06 19:31 31.54077 -81.88801 8482 ft 166 kts 316°
2026-05-06 19:32 31.54995 -81.89634 8482 ft 167 kts 316°
2026-05-06 19:32 31.55909 -81.90466 8489 ft 166 kts 316°
2026-05-06 19:32 31.56829 -81.91303 8482 ft 168 kts 316°
2026-05-06 19:32 31.57748 -81.92136 8483 ft 167 kts 316°
2026-05-06 19:33 31.58662 -81.92969 8487 ft 167 kts 316°
2026-05-06 19:33 31.59567 -81.93792 8489 ft 167 kts 316°
2026-05-06 19:33 31.60490 -81.94630 8487 ft 168 kts 316°
2026-05-06 19:33 31.61415 -81.95472 8482 ft 168 kts 316°
2026-05-06 19:34 31.62335 -81.96309 8492 ft 167 kts 316°
2026-05-06 19:34 31.63254 -81.97143 8479 ft 167 kts 315°
2026-05-06 19:34 31.64167 -81.97974 8479 ft 166 kts 315°
2026-05-06 19:34 31.65076 -81.98804 8482 ft 166 kts 315°
2026-05-06 19:35 31.65993 -81.99638 8485 ft 167 kts 316°
2026-05-06 19:35 31.66916 -82.00481 8478 ft 168 kts 316°
2026-05-06 19:35 31.67823 -82.01305 8487 ft 167 kts 315°
2026-05-06 19:35 31.68742 -82.02145 8478 ft 167 kts 315°
2026-05-06 19:36 31.69662 -82.02983 8477 ft 167 kts 316°
2026-05-06 19:36 31.70575 -82.03813 8484 ft 167 kts 315°
2026-05-06 19:36 31.71489 -82.04648 8473 ft 166 kts 315°
2026-05-06 19:36 31.72398 -82.05477 8473 ft 165 kts 315°
2026-05-06 19:37 31.73305 -82.06304 8470 ft 164 kts 315°
2026-05-06 19:37 31.74207 -82.07129 8467 ft 165 kts 315°
2026-05-06 19:37 31.75098 -82.07941 8466 ft 164 kts 315°
2026-05-06 19:37 31.75996 -82.08763 8466 ft 164 kts 315°
2026-05-06 19:38 31.76900 -82.09590 8476 ft 166 kts 315°
2026-05-06 19:38 31.77815 -82.10425 8462 ft 167 kts 315°
2026-05-06 19:38 31.78730 -82.11262 8463 ft 166 kts 315°
2026-05-06 19:38 31.79648 -82.12101 8462 ft 168 kts 315°
2026-05-06 19:39 31.80564 -82.12938 8465 ft 166 kts 315°
2026-05-06 19:39 31.81479 -82.13774 8465 ft 167 kts 315°
2026-05-06 19:39 31.82395 -82.14612 8461 ft 166 kts 315°
2026-05-06 19:39 31.83289 -82.15430 8462 ft 164 kts 315°
2026-05-06 19:40 31.84190 -82.16256 8463 ft 165 kts 315°
2026-05-06 19:40 31.85095 -82.17085 8460 ft 165 kts 315°
2026-05-06 19:40 31.86004 -82.17917 8462 ft 165 kts 315°
2026-05-06 19:40 31.86912 -82.18749 8460 ft 165 kts 315°
2026-05-06 19:41 31.87815 -82.19575 8467 ft 164 kts 314°
2026-05-06 19:41 31.88721 -82.20407 8462 ft 166 kts 314°
2026-05-06 19:41 31.89626 -82.21237 8461 ft 165 kts 315°
2026-05-06 19:41 31.90529 -82.22064 8457 ft 164 kts 315°
2026-05-06 19:42 31.91419 -82.22881 8463 ft 164 kts 315°
2026-05-06 19:42 31.92320 -82.23708 8461 ft 164 kts 314°
2026-05-06 19:42 31.93220 -82.24533 8457 ft 164 kts 314°
2026-05-06 19:42 31.94116 -82.25356 8456 ft 163 kts 314°
2026-05-06 19:43 31.95010 -82.26177 8458 ft 163 kts 314°
2026-05-06 19:43 31.95906 -82.27000 8459 ft 164 kts 314°
2026-05-06 19:43 31.96805 -82.27827 8463 ft 164 kts 314°
2026-05-06 19:43 31.97714 -82.28664 8454 ft 167 kts 314°
2026-05-06 19:44 31.98625 -82.29498 8456 ft 165 kts 314°
2026-05-06 19:44 31.99519 -82.30321 8462 ft 167 kts 314°
2026-05-06 19:44 32.00434 -82.31164 8452 ft 166 kts 314°
2026-05-06 19:44 32.01336 -82.31991 8456 ft 163 kts 314°
2026-05-06 19:45 32.02230 -82.32814 8454 ft 163 kts 314°
2026-05-06 19:45 32.03124 -82.33637 8454 ft 164 kts 314°
2026-05-06 19:45 32.04024 -82.34466 8453 ft 165 kts 314°
2026-05-06 19:45 32.04927 -82.35299 8452 ft 165 kts 314°
2026-05-06 19:46 32.05832 -82.36130 8455 ft 165 kts 314°
2026-05-06 19:46 32.06724 -82.36951 8455 ft 165 kts 314°
2026-05-06 19:46 32.07627 -82.37785 8456 ft 165 kts 314°
2026-05-06 19:46 32.08531 -82.38618 8457 ft 165 kts 314°
2026-05-06 19:47 32.09437 -82.39454 8455 ft 165 kts 314°
2026-05-06 19:47 32.10342 -82.40288 8457 ft 165 kts 314°
2026-05-06 19:47 32.11243 -82.41119 8458 ft 164 kts 314°
2026-05-06 19:47 32.12147 -82.41954 8455 ft 165 kts 314°
2026-05-06 19:48 32.13049 -82.42785 8456 ft 164 kts 314°
2026-05-06 19:48 32.13948 -82.43616 8458 ft 164 kts 314°
2026-05-06 19:48 32.14846 -82.44445 8458 ft 164 kts 314°
2026-05-06 19:48 32.15732 -82.45264 8460 ft 164 kts 314°
2026-05-06 19:49 32.16628 -82.46092 8454 ft 164 kts 314°
2026-05-06 19:49 32.17527 -82.46921 8459 ft 164 kts 314°
2026-05-06 19:49 32.18427 -82.47754 8457 ft 164 kts 314°
2026-05-06 19:49 32.19326 -82.48585 8458 ft 164 kts 314°
2026-05-06 19:50 32.20225 -82.49416 8460 ft 164 kts 314°
2026-05-06 19:50 32.21125 -82.50251 8456 ft 165 kts 314°
2026-05-06 19:50 32.22027 -82.51085 8461 ft 165 kts 314°
2026-05-06 19:50 32.22932 -82.51922 8459 ft 165 kts 314°
2026-05-06 19:51 32.23825 -82.52748 8464 ft 165 kts 314°
2026-05-06 19:51 32.24727 -82.53584 8458 ft 165 kts 314°
2026-05-06 19:51 32.25629 -82.54420 8461 ft 165 kts 314°
2026-05-06 19:51 32.26534 -82.55257 8463 ft 165 kts 314°
2026-05-06 19:52 32.27436 -82.56093 8457 ft 165 kts 314°
2026-05-06 19:52 32.28340 -82.56933 8459 ft 166 kts 314°
2026-05-06 19:52 32.29248 -82.57774 8458 ft 165 kts 314°
2026-05-06 19:52 32.30150 -82.58610 8454 ft 164 kts 314°
2026-05-06 19:53 32.31048 -82.59444 8453 ft 164 kts 314°
2026-05-06 19:53 32.31937 -82.60269 8455 ft 165 kts 314°
2026-05-06 19:53 32.32838 -82.61105 8457 ft 164 kts 314°
2026-05-06 19:53 32.33734 -82.61937 8455 ft 164 kts 314°
2026-05-06 19:54 32.34621 -82.62759 8493 ft 162 kts 313°
2026-05-06 19:54 32.35509 -82.63585 8496 ft 163 kts 314°
2026-05-06 19:54 32.36419 -82.64436 8362 ft 171 kts 314°
2026-05-06 19:54 32.37363 -82.65312 8220 ft 174 kts 314°
2026-05-06 19:55 32.38321 -82.66201 8077 ft 176 kts 315°
2026-05-06 19:55 32.39286 -82.67097 7936 ft 176 kts 315°
2026-05-06 19:55 32.40235 -82.67981 7796 ft 177 kts 315°
2026-05-06 19:55 32.41203 -82.68880 7654 ft 177 kts 316°
2026-05-06 19:56 32.42172 -82.69782 7517 ft 177 kts 315°
2026-05-06 19:56 32.43141 -82.70685 7380 ft 178 kts 316°
2026-05-06 19:56 32.44118 -82.71597 7239 ft 180 kts 316°
2026-05-06 19:56 32.45101 -82.72508 7100 ft 179 kts 316°
2026-05-06 19:57 32.46083 -82.73423 6962 ft 180 kts 316°
2026-05-06 19:57 32.47065 -82.74340 6816 ft 179 kts 316°
2026-05-06 19:57 32.48038 -82.75248 6682 ft 177 kts 316°
2026-05-06 19:57 32.48994 -82.76140 6555 ft 178 kts 317°
2026-05-06 19:58 32.49962 -82.77039 6489 ft 173 kts 317°
2026-05-06 19:58 32.50895 -82.77909 6495 ft 170 kts 316°
2026-05-06 19:58 32.51819 -82.78774 6491 ft 169 kts 317°
2026-05-06 19:58 32.52741 -82.79632 6493 ft 167 kts 316°
2026-05-06 19:59 32.53651 -82.80484 6493 ft 167 kts 316°
2026-05-06 19:59 32.54562 -82.81337 6491 ft 166 kts 316°
2026-05-06 19:59 32.55471 -82.82186 6497 ft 166 kts 316°
2026-05-06 19:59 32.56396 -82.83001 6493 ft 167 kts 324°
2026-05-06 20:00 32.57499 -82.83455 6495 ft 172 kts 339°
2026-05-06 20:00 32.58648 -82.83821 6498 ft 170 kts 338°
2026-05-06 20:00 32.59788 -82.84213 6506 ft 171 kts 337°
2026-05-06 20:00 32.60930 -82.84616 6484 ft 169 kts 336°
2026-05-06 20:01 32.62047 -82.85010 6482 ft 166 kts 337°
2026-05-06 20:01 32.63153 -82.85398 6484 ft 166 kts 337°
2026-05-06 20:01 32.64262 -82.85789 6484 ft 167 kts 336°
2026-05-06 20:01 32.65381 -82.86183 6491 ft 169 kts 336°
2026-05-06 20:02 32.66511 -82.86585 6486 ft 170 kts 337°
2026-05-06 20:02 32.67625 -82.86975 6490 ft 169 kts 337°
2026-05-06 20:02 32.68746 -82.87369 6487 ft 167 kts 336°
2026-05-06 20:02 32.69862 -82.87764 6493 ft 168 kts 337°
2026-05-06 20:03 32.70984 -82.88159 6487 ft 168 kts 337°
2026-05-06 20:03 32.72111 -82.88558 6487 ft 172 kts 337°
2026-05-06 20:03 32.73257 -82.88964 6480 ft 171 kts 336°
2026-05-06 20:03 32.74394 -82.89361 6485 ft 169 kts 336°
2026-05-06 20:04 32.75518 -82.89761 6491 ft 169 kts 336°
2026-05-06 20:04 32.76660 -82.90165 6487 ft 172 kts 337°
2026-05-06 20:04 32.77798 -82.90565 6484 ft 173 kts 337°
2026-05-06 20:04 32.78944 -82.90969 6483 ft 171 kts 337°
2026-05-06 20:05 32.80084 -82.91372 6483 ft 172 kts 336°
2026-05-06 20:05 32.81235 -82.91781 6481 ft 173 kts 337°
2026-05-06 20:05 32.82385 -82.92186 6480 ft 173 kts 336°
2026-05-06 20:05 32.83529 -82.92592 6476 ft 171 kts 336°
2026-05-06 20:06 32.84670 -82.92995 6468 ft 171 kts 336°
2026-05-06 20:06 32.85802 -82.93395 6462 ft 170 kts 336°
2026-05-06 20:06 32.86933 -82.93793 6464 ft 169 kts 336°
2026-05-06 20:06 32.88048 -82.94191 6465 ft 170 kts 336°
2026-05-06 20:07 32.89176 -82.94592 6461 ft 169 kts 336°
2026-05-06 20:07 32.90306 -82.94993 6459 ft 170 kts 336°
2026-05-06 20:07 32.91442 -82.95394 6456 ft 171 kts 336°
2026-05-06 20:07 32.92576 -82.95797 6456 ft 169 kts 336°
2026-05-06 20:08 32.93701 -82.96195 6457 ft 169 kts 336°
2026-05-06 20:08 32.94828 -82.96596 6458 ft 170 kts 336°
2026-05-06 20:08 32.95963 -82.96997 6467 ft 171 kts 336°
2026-05-06 20:08 32.97083 -82.97395 6462 ft 170 kts 336°
2026-05-06 20:09 32.98213 -82.97797 6462 ft 170 kts 336°
2026-05-06 20:09 32.99344 -82.98198 6459 ft 169 kts 336°
2026-05-06 20:09 33.00467 -82.98596 6461 ft 168 kts 335°
2026-05-06 20:09 33.01596 -82.98998 6462 ft 170 kts 336°
2026-05-06 20:10 33.02726 -82.99400 6467 ft 170 kts 336°
2026-05-06 20:10 33.03863 -82.99804 6461 ft 170 kts 336°
2026-05-06 20:10 33.04992 -83.00204 6464 ft 169 kts 336°
2026-05-06 20:10 33.06115 -83.00605 6462 ft 168 kts 336°
2026-05-06 20:11 33.07221 -83.00998 6460 ft 168 kts 336°
2026-05-06 20:11 33.08342 -83.01397 6458 ft 169 kts 336°
2026-05-06 20:11 33.09468 -83.01799 6459 ft 169 kts 335°
2026-05-06 20:11 33.10600 -83.02201 6460 ft 169 kts 336°
2026-05-06 20:12 33.11730 -83.02603 6461 ft 170 kts 336°
2026-05-06 20:12 33.12859 -83.03006 6458 ft 169 kts 336°
2026-05-06 20:12 33.13993 -83.03409 6460 ft 171 kts 336°
2026-05-06 20:12 33.15125 -83.03812 6455 ft 169 kts 335°
2026-05-06 20:13 33.16256 -83.04216 6459 ft 170 kts 336°
2026-05-06 20:13 33.17370 -83.04614 6459 ft 169 kts 335°
2026-05-06 20:13 33.18499 -83.05017 6456 ft 170 kts 336°
2026-05-06 20:13 33.19629 -83.05420 6455 ft 169 kts 335°
2026-05-06 20:14 33.20753 -83.05821 6454 ft 169 kts 335°
2026-05-06 20:14 33.21886 -83.06226 6458 ft 171 kts 335°
2026-05-06 20:14 33.23022 -83.06630 6456 ft 170 kts 335°
2026-05-06 20:14 33.24152 -83.07034 6456 ft 169 kts 335°
2026-05-06 20:15 33.25277 -83.07438 6452 ft 169 kts 336°
2026-05-06 20:15 33.26397 -83.07836 6455 ft 167 kts 335°
2026-05-06 20:15 33.27513 -83.08235 6463 ft 167 kts 335°
2026-05-06 20:15 33.28626 -83.08636 6458 ft 170 kts 335°
2026-05-06 20:16 33.29752 -83.09037 6458 ft 168 kts 335°
2026-05-06 20:16 33.30873 -83.09437 6459 ft 168 kts 335°
2026-05-06 20:16 33.31994 -83.09838 6458 ft 168 kts 335°
2026-05-06 20:16 33.33115 -83.10240 6459 ft 168 kts 335°
2026-05-06 20:17 33.34236 -83.10643 6463 ft 169 kts 335°
2026-05-06 20:17 33.35361 -83.11045 6460 ft 169 kts 335°
2026-05-06 20:17 33.36484 -83.11446 6457 ft 168 kts 335°
2026-05-06 20:17 33.37588 -83.11842 6456 ft 168 kts 335°
2026-05-06 20:18 33.38708 -83.12244 6456 ft 168 kts 335°
2026-05-06 20:18 33.39831 -83.12647 6457 ft 169 kts 335°
2026-05-06 20:18 33.40961 -83.13052 6464 ft 170 kts 335°
2026-05-06 20:18 33.42093 -83.13458 6461 ft 169 kts 335°
2026-05-06 20:19 33.43225 -83.13865 6457 ft 170 kts 335°
2026-05-06 20:19 33.44361 -83.14272 6454 ft 170 kts 335°
2026-05-06 20:19 33.45491 -83.14677 6458 ft 170 kts 334°
2026-05-06 20:19 33.46626 -83.15086 6461 ft 171 kts 335°
2026-05-06 20:20 33.47755 -83.15492 6453 ft 172 kts 335°
2026-05-06 20:20 33.48902 -83.15903 6454 ft 172 kts 335°
2026-05-06 20:20 33.50048 -83.16314 6453 ft 171 kts 335°
2026-05-06 20:20 33.51181 -83.16722 6453 ft 170 kts 335°
2026-05-06 20:21 33.52317 -83.17131 6454 ft 171 kts 334°
2026-05-06 20:21 33.53462 -83.17543 6456 ft 172 kts 335°
2026-05-06 20:21 33.54610 -83.17955 6453 ft 171 kts 335°
2026-05-06 20:21 33.55748 -83.18365 6454 ft 171 kts 335°
2026-05-06 20:22 33.56885 -83.18775 6453 ft 170 kts 335°
2026-05-06 20:22 33.58024 -83.19185 6455 ft 172 kts 335°
2026-05-06 20:22 33.59170 -83.19598 6454 ft 172 kts 335°
2026-05-06 20:22 33.60299 -83.20004 6453 ft 172 kts 335°
2026-05-06 20:23 33.61443 -83.20417 6454 ft 172 kts 335°
2026-05-06 20:23 33.62585 -83.20828 6458 ft 171 kts 335°
2026-05-06 20:23 33.63735 -83.21245 6454 ft 173 kts 335°
2026-05-06 20:23 33.64887 -83.21659 6456 ft 173 kts 335°
2026-05-06 20:24 33.66035 -83.22072 6457 ft 172 kts 335°
2026-05-06 20:24 33.67176 -83.22484 6459 ft 171 kts 335°
2026-05-06 20:24 33.68300 -83.22891 6457 ft 171 kts 335°
2026-05-06 20:24 33.69447 -83.23306 6456 ft 173 kts 335°
2026-05-06 20:25 33.70599 -83.23722 6461 ft 173 kts 335°
2026-05-06 20:25 33.71754 -83.24139 6457 ft 173 kts 335°
2026-05-06 20:25 33.72913 -83.24557 6457 ft 174 kts 335°
2026-05-06 20:25 33.74069 -83.24975 6458 ft 173 kts 335°
2026-05-06 20:26 33.75214 -83.25389 6457 ft 172 kts 334°
2026-05-06 20:26 33.76353 -83.25800 6457 ft 171 kts 334°
2026-05-06 20:26 33.77490 -83.26212 6462 ft 171 kts 334°
2026-05-06 20:26 33.78607 -83.26617 6455 ft 170 kts 335°
2026-05-06 20:27 33.79744 -83.27029 6459 ft 171 kts 335°
2026-05-06 20:27 33.80885 -83.27442 6462 ft 172 kts 335°
2026-05-06 20:27 33.82026 -83.27855 6460 ft 171 kts 334°
2026-05-06 20:27 33.83166 -83.28268 6462 ft 171 kts 334°
2026-05-06 20:28 33.84300 -83.28679 6463 ft 170 kts 334°
2026-05-06 20:28 33.85434 -83.29091 6466 ft 170 kts 335°
2026-05-06 20:28 33.86554 -83.29496 6463 ft 170 kts 334°
2026-05-06 20:28 33.87690 -83.29908 6465 ft 171 kts 334°
2026-05-06 20:29 33.88828 -83.30321 6463 ft 170 kts 334°
2026-05-06 20:29 33.89958 -83.30731 6461 ft 169 kts 334°
2026-05-06 20:29 33.91078 -83.31138 6462 ft 168 kts 334°
2026-05-06 20:29 33.92201 -83.31546 6464 ft 169 kts 334°
2026-05-06 20:30 33.93331 -83.31957 6465 ft 170 kts 334°
2026-05-06 20:30 33.95404 -83.33107 6366 ft 161 kts 309°
2026-05-06 20:30 33.96223 -83.34046 6254 ft 165 kts 309°
2026-05-06 20:31 33.97082 -83.34992 6108 ft 169 kts 310°
2026-05-06 20:31 33.97950 -83.35933 5966 ft 171 kts 310°
2026-05-06 20:31 33.98845 -83.36902 5822 ft 174 kts 310°
2026-05-06 20:31 33.99743 -83.37876 5678 ft 174 kts 310°
2026-05-06 20:32 34.00645 -83.38852 5535 ft 175 kts 310°
2026-05-06 20:32 34.01552 -83.39835 5388 ft 176 kts 311°
2026-05-06 20:32 34.02464 -83.40824 5247 ft 176 kts 311°
2026-05-06 20:32 34.03379 -83.41818 5107 ft 178 kts 311°
2026-05-06 20:33 34.04285 -83.42801 4961 ft 178 kts 311°
2026-05-06 20:33 34.05209 -83.43803 4817 ft 179 kts 311°
2026-05-06 20:33 34.06134 -83.44809 4675 ft 179 kts 311°
2026-05-06 20:33 34.07063 -83.45820 4527 ft 180 kts 311°
2026-05-06 20:34 34.07987 -83.46820 4491 ft 175 kts 311°
2026-05-06 20:34 34.08883 -83.47793 4495 ft 172 kts 310°
2026-05-06 20:34 34.09766 -83.48755 4489 ft 171 kts 310°
2026-05-06 20:34 34.10646 -83.49714 4490 ft 171 kts 310°
2026-05-06 20:35 34.11527 -83.50672 4496 ft 169 kts 310°
2026-05-06 20:35 34.12388 -83.51609 4497 ft 169 kts 310°
2026-05-06 20:35 34.13258 -83.52558 4494 ft 168 kts 310°
2026-05-06 20:35 34.14123 -83.53498 4497 ft 167 kts 310°
2026-05-06 20:36 34.14983 -83.54436 4495 ft 167 kts 310°
2026-05-06 20:36 34.15845 -83.55375 4493 ft 167 kts 310°
2026-05-06 20:36 34.16706 -83.56315 4492 ft 167 kts 310°
2026-05-06 20:36 34.17571 -83.57258 4495 ft 168 kts 310°
2026-05-06 20:37 34.18437 -83.58201 4494 ft 168 kts 310°
2026-05-06 20:37 34.19304 -83.59147 4496 ft 168 kts 309°
2026-05-06 20:37 34.20166 -83.60090 4492 ft 167 kts 309°
2026-05-06 20:37 34.21013 -83.61013 4497 ft 166 kts 309°
2026-05-06 20:38 34.21871 -83.61949 4499 ft 167 kts 309°
2026-05-06 20:38 34.22729 -83.62887 4499 ft 166 kts 309°
2026-05-06 20:38 34.23585 -83.63822 4502 ft 165 kts 309°
2026-05-06 20:38 34.24437 -83.64752 4498 ft 165 kts 309°
2026-05-06 20:39 34.25286 -83.65683 4499 ft 165 kts 309°
2026-05-06 20:39 34.26137 -83.66612 4499 ft 165 kts 309°
2026-05-06 20:39 34.26991 -83.67546 4523 ft 166 kts 310°
2026-05-06 20:39 34.27845 -83.68481 4527 ft 166 kts 309°
2026-05-06 20:40 34.28688 -83.69404 4528 ft 165 kts 309°
2026-05-06 20:40 34.29541 -83.70337 4527 ft 165 kts 309°
2026-05-06 20:40 34.30389 -83.71267 4533 ft 165 kts 309°
2026-05-06 20:40 34.31240 -83.72198 4532 ft 165 kts 309°
2026-05-06 20:41 34.32093 -83.73133 4531 ft 166 kts 309°
2026-05-06 20:41 34.32946 -83.74068 4528 ft 165 kts 309°
2026-05-06 20:41 34.33802 -83.75004 4535 ft 166 kts 309°
2026-05-06 20:41 34.34656 -83.75943 4536 ft 166 kts 309°
2026-05-06 20:42 34.35508 -83.76876 4533 ft 165 kts 309°
2026-05-06 20:42 34.36345 -83.77794 4535 ft 165 kts 309°
2026-05-06 20:42 34.37188 -83.78720 4528 ft 163 kts 310°
2026-05-06 20:42 34.38032 -83.79649 4468 ft 167 kts 311°
2026-05-06 20:43 34.39002 -83.80388 4500 ft 170 kts 342°
2026-05-06 20:43 34.40112 -83.79992 4762 ft 173 kts 40°
2026-05-06 20:43 34.40554 -83.78703 5016 ft 166 kts 101°
2026-05-06 20:43 34.40303 -83.77395 5297 ft 158 kts 112°
2026-05-06 20:44 34.40023 -83.76117 5587 ft 156 kts 112°
2026-05-06 20:44 34.39735 -83.74872 5860 ft 155 kts 113°
2026-05-06 20:44 34.39445 -83.73621 6150 ft 154 kts 113°
2026-05-06 20:44 34.39150 -83.72366 6437 ft 156 kts 113°
2026-05-06 20:45 34.38851 -83.71097 6710 ft 157 kts 113°
2026-05-06 20:45 34.38550 -83.69821 6991 ft 158 kts 113°
2026-05-06 20:45 34.38247 -83.68544 7252 ft 159 kts 113°
2026-05-06 20:45 34.37908 -83.67153 7151 ft 185 kts 113°
2026-05-06 20:46 34.37499 -83.65610 7015 ft 197 kts 118°
2026-05-06 20:46 34.36825 -83.64165 6867 ft 199 kts 130°
2026-05-06 20:46 34.35848 -83.63136 6680 ft 184 kts 169°
2026-05-06 20:46 34.34678 -83.63216 6462 ft 163 kts 215°
2026-05-06 20:47 34.33810 -83.64028 6220 ft 156 kts 226°
2026-05-06 20:47 34.32976 -83.64884 5956 ft 157 kts 225°
2026-05-06 20:47 34.32149 -83.65755 5695 ft 158 kts 225°
2026-05-06 20:47 34.31331 -83.66641 5430 ft 158 kts 225°
2026-05-06 20:48 34.30516 -83.67531 5167 ft 158 kts 221°
2026-05-06 20:48 34.29422 -83.67807 4926 ft 174 kts 176°
2026-05-06 20:48 34.28413 -83.66945 4711 ft 194 kts 131°
2026-05-06 20:48 34.28113 -83.65326 4455 ft 207 kts 86°
2026-05-06 20:49 34.28766 -83.63806 4233 ft 207 kts 40°
2026-05-06 20:49 34.30031 -83.63167 4014 ft 194 kts 357°
2026-05-06 20:49 34.31271 -83.63537 3803 ft 179 kts 318°
2026-05-06 20:49 34.32175 -83.64525 3615 ft 176 kts 309°
2026-05-06 20:50 34.33000 -83.65594 3456 ft 173 kts 300°
2026-05-06 20:50 34.33718 -83.66753 3262 ft 172 kts 299°
2026-05-06 20:50 34.34428 -83.67915 3074 ft 172 kts 300°
2026-05-06 20:50 34.35114 -83.69072 2877 ft 171 kts 299°
2026-05-06 20:51 34.35794 -83.70254 2693 ft 171 kts 299°
2026-05-06 20:51 34.36469 -83.71447 2506 ft 172 kts 298°
2026-05-06 20:51 34.37143 -83.72621 2405 ft 168 kts 298°
2026-05-06 20:51 34.37740 -83.73826 2315 ft 166 kts 294°
2026-05-06 20:52 34.38216 -83.75061 2319 ft 159 kts 285°
2026-05-06 20:52 34.38496 -83.76332 2319 ft 155 kts 278°
2026-05-06 20:52 34.38721 -83.77591 2324 ft 151 kts 277°
2026-05-06 20:52 34.38959 -83.78814 2334 ft 152 kts 277°
2026-05-06 20:53 34.39241 -83.80077 2332 ft 156 kts 277°
2026-05-06 20:53 34.39557 -83.81298 2312 ft 150 kts 279°
2026-05-06 20:53 34.39981 -83.82429 2324 ft 146 kts 295°
2026-05-06 20:53 34.40574 -83.83405 2322 ft 143 kts 300°
2026-05-06 20:54 34.41305 -83.84214 2291 ft 138 kts 320°
2026-05-06 20:54 34.42028 -83.84923 2302 ft 130 kts 324°
2026-05-06 20:54 34.42668 -83.85709 2233 ft 131 kts 309°
2026-05-06 20:54 34.43248 -83.86554 2293 ft 131 kts 308°
2026-05-06 20:55 34.43841 -83.87386 2261 ft 135 kts 312°
2026-05-06 20:55 34.44512 -83.88187 2259 ft 134 kts 317°
2026-05-06 20:55 34.45205 -83.88938 2273 ft 135 kts 317°
2026-05-06 20:55 34.45932 -83.89681 2261 ft 138 kts 323°
2026-05-06 20:56 34.46728 -83.90303 2277 ft 135 kts 323°
2026-05-06 20:56 34.47447 -83.91051 2294 ft 135 kts 316°
2026-05-06 20:56 34.48125 -83.91825 2269 ft 135 kts 316°
2026-05-06 20:56 34.48785 -83.92635 2257 ft 134 kts 313°
2026-05-06 20:57 34.49414 -83.93434 2267 ft 132 kts 314°
2026-05-06 20:57 34.50092 -83.94185 2265 ft 133 kts 318°
2026-05-06 20:57 34.50759 -83.94945 2265 ft 131 kts 314°
2026-05-06 20:57 34.51384 -83.95752 2267 ft 131 kts 313°
2026-05-06 20:58 34.52019 -83.96530 2276 ft 130 kts 314°
2026-05-06 20:58 34.52664 -83.97312 2231 ft 129 kts 314°
2026-05-06 20:58 34.53296 -83.98075 2208 ft 128 kts 314°
2026-05-06 20:58 34.53943 -83.98816 2148 ft 126 kts 319°
2026-05-06 20:59 34.54632 -83.99412 2036 ft 117 kts 328°
2026-05-06 20:59 34.55285 -83.99868 1902 ft 106 kts 329°
2026-05-06 20:59 34.55912 -84.00336 1802 ft 105 kts 327°
2026-05-06 20:59 34.56526 -84.00773 1686 ft 95 kts 329°
2026-05-06 21:00 34.57081 -84.01148 1544 ft 89 kts 329°
2026-05-06 21:00 34.57598 -84.01501 1431 ft 81 kts 328°
2026-05-06 21:00 34.58056 -84.01820 1335 ft 68 kts 330°
2026-05-06 21:00 34.58330 -84.02007 1332 ft 8 kts 324°
2026-05-06 21:01 34.58269 -84.01970 1330 ft 24 kts 149°
2026-05-06 21:01 34.58138 -84.01884 1328 ft 10 kts 184°
2026-05-06 21:01 34.58128 -84.01941 1329 ft 8 kts 328°
2026-05-06 21:01 34.58136 -84.01940 1329 ft 0 kts 61°